Regional Weather Roundup
Issued by NWS

Home | Current Version | Previous Version | Text Only | Print | Product List | Glossary On
Versions: 1 2 3 4 5 6 7 8 9 10 11 12 13 14 15 16 17 18 19 20 21 22 23 24 25 26 27 28 29 30 31 32 33 34 35 36 37 38 39 40 41 42 43 44 45 46 47 48 49 50
000
ASHW40 PHFO 242144
RWRHI

WEATHER ROUNDUP FOR HAWAII
NATIONAL WEATHER SERVICE HONOLULU HI
1100 AM HST TUE JAN 24 2017

THIS IS AN AUTOMATED REPORT THAT HAS NOT BEEN QUALITY CONTROLLED.

NOTE..."FAIR" INDICATES FEW OR NO CLOUDS BELOW 12,000 FEET WITH NO
SIGNIFICANT WEATHER AND/OR OBSTRUCTIONS TO VISIBILITY.

* - THESE SITES REPORT LIMITED FIELDS

HIZ001>004-242200-
KAUAI-NIIHAU-

CITY           SKY/WX    TMP DP  RH WIND       PRES   REMARKS
LIHUE APT      MOSUNNY   78  68  71 NE13      30.17R
PORT ALLEN*      N/A     75 N/A N/A NE13        N/A
POIPU*           N/A     79 N/A N/A E8G15       N/A
PRINCEVILLE*   NOT AVBL
KOKOLE POINT*  NOT AVBL
MOLOAA DAIRY*    N/A     77  68  73 E6G14       N/A
WAIMEA HTS*      N/A     81  64  57 W5G14       N/A
PUU OPAE*      NOT AVBL
PUU LUA*       NOT AVBL
MAKAHA RIDGE*    N/A    N/A N/A N/A W3          N/A
$$

HIZ005>011-242200-
OAHU-

CITY           SKY/WX    TMP DP  RH WIND       PRES   REMARKS
HONOLULU       PTSUNNY   75  67  76 CALM      30.14R
KALAELOA       PTSUNNY   79  66  64 VRB3      30.15S
KANEOHE MCB    NOT AVBL
WHEELER FIELD  DRIZZLE   70  68  94 CALM      30.14  FOG
BELLOWS*         N/A    N/A N/A N/A NE18        N/A
KAHUKU*          N/A    N/A N/A N/A NE8G15      N/A
WHEELER*         N/A    N/A N/A N/A NE2         N/A
WAIANAE HARBOR   N/A    N/A N/A N/A N5          N/A
DILLINGHAM*      N/A     82  75  78 MISG        N/A
KAHUKU TRN*      N/A     73  68  83 W10G21      N/A
KAWAILOA*        N/A     72  66  83 E7G18       N/A
KII*             N/A     75  70  83 E15         N/A
MAKUA RANGE*     N/A     75  68  78 NW5G12      N/A
OAHU FOREST NW   N/A     66  64  94 E15G26      N/A
SCHOFIELD BRK*   N/A     70  68  94 NE1         N/A
SCHOFIELD S*   NOT AVBL
WAIANAE VLY*     N/A     64  59  82 SE3         N/A
KUAOKALA*        N/A     72   5   7 N5G16       N/A
HONOULIUULI*   NOT AVBL
MOKUOLOE IS*   NOT AVBL
PALEHUA*         N/A     66  64  94 NE5G14      N/A
WAIAWA PHB*    NOT AVBL
$$

HIZ012>013-242200-
MOLOKAI-

CITY           SKY/WX    TMP DP  RH WIND       PRES   REMARKS
MOLOKAI AIRPT  PTSUNNY   76  66  71 NE16G24   30.14S
KALAUPAPA      NOT AVBL
MAKAPULAPAI*     N/A     73  70  88 E15G26      N/A
MOLOKAI 1*       N/A     66  63  88 NW2G10      N/A
PUU ALII*        N/A     60  60 100 N2G8        N/A
$$

HIZ016-242200-
KAHOOLAWE-

CITY           SKY/WX    TMP DP  RH WIND       PRES   REMARKS
KAHOOLAWE*     NOT AVBL
HAKIOAWA*        N/A     72  67  83 MISG      30.54F
HONOKANAIA*      N/A     81  65  57 NE13G23   30.06S
KANELOA*         N/A     75  68  78 NE14G24   30.19S
KEALIALALO*    NOT AVBL
LUA MAKIKA*    NOT AVBL
$$

HIZ014>015-242200-
LANAI-

CITY           SKY/WX    TMP DP  RH WIND       PRES   REMARKS
LANAI CITY     NOT AVBL
LANAI 1*         N/A     66  57  72 NE14G23     N/A
$$

HIZ017>028-242200-
MAUI-

CITY           SKY/WX    TMP DP  RH WIND       PRES   REMARKS
KAHULUI        MOSUNNY   79  66  64 NE20      30.13S
KAPALUA-W MAUI MOSUNNY   77  66  69 NE17      30.13F
HANA AIRPORT   CLOUDY    73  70  88 E8        30.17S
HANA*            N/A     75 N/A N/A E9G15       N/A
HALEAKALA SUMM   N/A     46  28  49 NW5         N/A
MAALAEA BAY*     N/A     79 N/A N/A N17G28      N/A
HALEAKALA*     NOT AVBL
KAUPO GAP*       N/A     79  73  83 E5G13       N/A
KULA 1*          N/A     61  47  59 NW5         N/A
$$

HIZ023>026-242200-
BIG ISLAND OF HAWAII COAST AND LOWER SLOPES-

CITY           SKY/WX    TMP DP  RH WIND       PRES   REMARKS
KAILUA KONA    MOSUNNY   80  66  62 S13       30.08F
HILO           RAIN      70  70 100 W8        30.13F FOG
HONOKAA*         N/A     68 N/A N/A VRB1        N/A
KAWAIHAE MWT*  NOT AVBL
KAWAIHAE*        N/A     75 N/A N/A W5        30.09S
SOUTH POINT*     N/A     70 N/A N/A N15G23      N/A
UPOLU AIRPORT* NOT AVBL
KAMUELA*       MOCLDY    72  64  78 NE16      30.19F
HAKALAU*         N/A     60  53  78 SE3         N/A
KALOKO-HONOKO*   N/A     82  63  51 S8        30.09S
PALI 2*          N/A     66  63  88 SW9G16      N/A
KEALAKOMO*       N/A     70  68  94 N6G15       N/A
KAUPULEHU*       N/A     79  59  50 W9          N/A
KAPAPALA*      NOT AVBL
LOWER KAHUKU*    N/A     64  63  94 E2G9        N/A
PUHE CS*         N/A     79  64  61 W6G12       N/A
PUHO CS*         N/A     81  63  53 S3G9        N/A
PTA KEAMUKU*     N/A     72  59  64 CALM        N/A
WAIKOLOA*        N/A    N/A N/A N/A W8G18       N/A
$$

HIZ027>028-242200-
BIG ISLAND OF HAWAII INTERIOR AND SUMMMITS-

CITY           SKY/WX    TMP DP  RH WIND       PRES   REMARKS
BRADSHAW FIELD MOSUNNY   64  50  59 S8        30.40S
MK VISITOR CEN   N/A     46  43  87 S6          N/A
MAUNA KEA*       N/A     32   5  32 SW15        N/A  WCI  22
MAUNA LOA*       N/A     43  32  65 MISG        N/A
MAUNA LOA 1*   NOT AVBL
PTA KIPUKA*      N/A    N/A N/A N/A NW5G12      N/A
PTA RANGE 17*    N/A     64  46  52 NW8         N/A
PTA WEST*        N/A     48  34  57 NW9G15      N/A
NENE CABIN*      N/A     55  54  94 E5G12       N/A
AHUMOA*          N/A     61  51  70 W9          N/A
PTA PORTABLE*  NOT AVBL
PUU MALI*        N/A     57 N/A N/A W6G15       N/A
$$

HIC003-242200-
NORTHWEST ISLANDS-

CITY           SKY/WX    TMP DP  RH WIND       PRES   REMARKS
MIDWAY ISLAND  MOSUNNY   73  70  88 SW9       30.15R
MIDWAY NOS*      N/A     75 N/A N/A MISG      30.13R
FRENCH FRIGATE NOT AVBL
$$

PHZ110>124-180-242200-
BUOY REPORTS

STATION/POSITION TIME  TEMP    WIND        PRES    WAVE   SWELL
                       AIR SEA DIR/SP/G            HT/PER HT/DIR
                 (UTC) (F)     (DEG/KT/KT) (MB)    (FT/S) (FT/D)
BUOY 51001       2120   73 74   70/ 16/ 19 1022.5
BUOY 51101       2050   73 75   60/ 14/ 17 1023.2R   9/ 9   8/120
BUOY 51100       NOT AVBL
BUOY 51002       2120   75 77   60/ 17/ 23 1018.3
BUOY 51003       2050   76 78   50/  8/ 10 1019.7S   7/11   7/ 40
BUOY 51004       2050      77   90/ 21/ 25 1018.1F  11/10   8/ 70
BARBERS PT BUOY  NOT AVBL
WAIMEA BAY BUOY  2102      74                N/A     5/11   3/ 10
KAILUA BAY BUOY  2104      76                N/A     8/11   3/ 40
LANAI BUOY       2115      77                N/A     2/ 9   2/270
BARBERS PT 2     2109      77                N/A     4/10   2/160
PAUWELA MAUI     2109      75                N/A     9/10   3/ 50
HILO             2112      75                N/A    10/ 9   5/ 30
KANEOHE BAY BUOY 2036      75                N/A     7/11   3/ 30
HANALEI KAUAI    2122      77                N/A     7/10   3/ 60
KAHULUI HARBOR   2106   73 74   40/ 15/ 17 1020.3
HONOLULU HARBOR  2106   73 76  120/  2/  6 1021.4
KILO NALU        NOT AVBL
HILO HARBOR      2106   70 74  280/  6/  8 1020.1
MOKUOLOE         2036   74 73   80/ 15/ 17 1020.8R
NAWILIWILI       2106   74 75   70/ 10/ 12 1021.2
WHOTS BUOY       NOT AVBL
BUOY 51028       NOT AVBL
$$

......................KEY........................................
  SKY/WX - SKY CONDITIONS/PRESENT WEATHER
  TMP    - TEMPERATURE IN FAHRENHEIT
  DWPT   - DEWPOINT IN FAHRENHEIT
  RH     - RELATIVE HUMIDITY IN PERCENT
  WIND   - DIRECTION AND SPEED /MPH FOR ISLANDS...KTS FOR BUOYS/
  PRES   - MEAN SEA LEVEL PRESSURE IN INCHES OF HG
  VSB    - VISIBILITY IN MILES
  HX     - HEAT INDEX
  WCI    - WIND CHILL INDEX
  VRB    - VARIABLE WIND DIRECTION
  N/A    - NOT AVAILABLE




USA.gov is the U.S. government's official web portal to all federal, state and local government web resources and services.